Time,TemperatureF,DewpointF,PressureIn,WindDirection,WindDirectionDegrees,WindSpeedMPH,WindSpeedGustMPH,Humidity,HourlyPrecipIn,Conditions,Clouds,dailyrainin,SoftwareType,DateUTC
2013-02-08 00:01:00,38.0,28.0,28.08,WNW,290,5.0,11.0,67,0.00,,,0.00,,2013-02-08 08:01:00,
2013-02-08 00:11:00,38.0,28.0,28.08,WNW,290,5.0,11.0,67,0.00,,,0.00,,2013-02-08 08:11:00,
2013-02-08 00:21:00,38.0,28.0,28.08,WNW,291,8.0,20.0,66,0.00,,,0.00,,2013-02-08 08:21:00,
2013-02-08 00:32:00,38.0,28.0,28.09,WNW,293,10.0,14.0,66,0.00,,,0.00,,2013-02-08 08:32:00,
2013-02-08 00:41:00,38.0,28.0,28.09,WNW,293,10.0,14.0,66,0.00,,,0.00,,2013-02-08 08:41:00,
2013-02-08 00:52:00,38.0,28.0,28.09,NW,305,5.0,18.0,66,0.00,,,0.00,,2013-02-08 08:52:00,
2013-02-08 01:02:00,37.0,28.0,28.09,NNW,346,5.0,11.0,69,0.00,,,0.00,,2013-02-08 09:02:00,
2013-02-08 01:11:00,37.0,28.0,28.09,NNW,346,5.0,11.0,69,0.00,,,0.00,,2013-02-08 09:11:00,
2013-02-08 01:21:00,36.0,27.0,28.09,WNW,303,8.0,14.0,70,0.00,,,0.00,,2013-02-08 09:21:00,
2013-02-08 01:31:00,37.0,28.0,28.09,NNW,331,8.0,17.0,70,0.00,,,0.00,,2013-02-08 09:31:00,
2013-02-08 01:42:00,37.0,28.0,28.09,NNW,331,8.0,17.0,70,0.00,,,0.00,,2013-02-08 09:42:00,
2013-02-08 01:51:00,37.0,28.0,28.10,West,263,6.0,18.0,69,0.00,,,0.00,,2013-02-08 09:51:00,
2013-02-08 02:01:00,36.0,27.0,28.11,WNW,300,5.0,12.0,69,0.00,,,0.00,,2013-02-08 10:01:00,
2013-02-08 02:11:00,36.0,27.0,28.11,WNW,300,5.0,12.0,69,0.00,,,0.00,,2013-02-08 10:11:00,
2013-02-08 02:22:00,37.0,28.0,28.11,NW,325,11.0,21.0,69,0.00,,,0.00,,2013-02-08 10:22:00,
2013-02-08 02:31:00,37.0,27.0,28.11,WNW,301,8.0,19.0,68,0.00,,,0.00,,2013-02-08 10:31:00,
2013-02-08 02:41:00,37.0,27.0,28.11,WNW,301,8.0,19.0,68,0.00,,,0.00,,2013-02-08 10:41:00,
2013-02-08 02:51:00,37.0,27.0,28.12,NW,318,6.0,14.0,68,0.00,,,0.00,,2013-02-08 10:51:00,
2013-02-08 03:01:00,36.0,27.0,28.12,WSW,245,5.0,12.0,69,0.00,,,0.00,,2013-02-08 11:01:00,
2013-02-08 03:11:00,36.0,27.0,28.12,WSW,245,5.0,12.0,69,0.00,,,0.00,,2013-02-08 11:11:00,
2013-02-08 03:21:00,35.0,27.0,28.12,NNW,332,7.0,11.0,71,0.00,,,0.00,,2013-02-08 11:21:00,
2013-02-08 03:32:00,35.0,27.0,28.12,NW,310,5.0,13.0,71,0.00,,,0.00,,2013-02-08 11:32:00,
2013-02-08 03:41:00,35.0,27.0,28.12,NW,310,5.0,13.0,71,0.00,,,0.00,,2013-02-08 11:41:00,
2013-02-08 03:52:00,35.0,27.0,28.12,West,277,4.0,11.0,72,0.00,,,0.00,,2013-02-08 11:52:00,
2013-02-08 04:01:00,35.0,27.0,28.12,NW,314,2.0,13.0,72,0.00,,,0.00,,2013-02-08 12:01:00,
2013-02-08 04:11:00,35.0,27.0,28.12,NW,314,2.0,13.0,72,0.00,,,0.00,,2013-02-08 12:11:00,
2013-02-08 04:21:00,35.0,27.0,28.12,NW,307,2.0,11.0,72,0.00,,,0.00,,2013-02-08 12:21:00,
2013-02-08 04:32:00,34.0,26.0,28.13,SSW,212,1.0,10.0,73,0.00,,,0.00,,2013-02-08 12:32:00,
2013-02-08 04:42:00,34.0,26.0,28.13,SSW,212,1.0,10.0,73,0.00,,,0.00,,2013-02-08 12:42:00,
2013-02-08 04:52:00,34.0,26.0,28.13,NW,322,4.0,11.0,72,0.00,,,0.00,,2013-02-08 12:52:00,
2013-02-08 05:01:00,34.0,26.0,28.14,ESE,106,0.0,2.0,72,0.00,,,0.00,,2013-02-08 13:01:00,
2013-02-08 05:11:00,34.0,26.0,28.14,ESE,106,0.0,2.0,72,0.00,,,0.00,,2013-02-08 13:11:00,
2013-02-08 05:21:00,33.0,26.0,28.14,WSW,240,3.0,9.0,74,0.00,,,0.00,,2013-02-08 13:21:00,
2013-02-08 05:32:00,33.0,26.0,28.14,WSW,240,3.0,9.0,74,0.00,,,0.00,,2013-02-08 13:32:00,
2013-02-08 05:42:00,33.0,26.0,28.14,WSW,240,3.0,9.0,74,0.00,,,0.00,,2013-02-08 13:42:00,
2013-02-08 05:51:00,32.0,26.0,28.15,NNE,13,0.0,3.0,78,0.00,,,0.00,,2013-02-08 13:51:00,
2013-02-08 06:02:00,32.0,26.0,28.15,NW,307,4.0,10.0,79,0.00,,,0.00,,2013-02-08 14:02:00,
2013-02-08 06:11:00,32.0,26.0,28.15,NW,307,4.0,10.0,79,0.00,,,0.00,,2013-02-08 14:11:00,
2013-02-08 06:21:00,34.0,26.0,28.15,NNW,329,3.0,-999.0,73,-99.99,,,-99.99,,2013-02-08 14:21:00,
2013-02-08 06:32:00,34.0,26.0,28.15,NNW,329,3.0,-999.0,73,-99.99,,,-99.99,,2013-02-08 14:32:00,
2013-02-08 06:41:00,34.0,26.0,28.15,NNW,329,3.0,-999.0,73,-99.99,,,-99.99,,2013-02-08 14:41:00,
2013-02-08 06:52:00,32.0,26.0,28.16,ESE,123,0.0,1.0,79,0.00,,,0.00,,2013-02-08 14:52:00,
2013-02-08 07:02:00,30.0,25.0,28.16,SSW,208,0.0,1.0,80,0.00,,,0.00,,2013-02-08 15:02:00,
2013-02-08 07:11:00,30.0,25.0,28.16,SSW,208,0.0,1.0,80,0.00,,,0.00,,2013-02-08 15:11:00,
2013-02-08 07:21:00,30.0,25.0,28.17,SE,146,0.0,1.0,81,0.00,,,0.00,,2013-02-08 15:21:00,
2013-02-08 07:32:00,30.0,25.0,28.17,WSW,242,0.0,4.0,83,0.00,,,0.00,,2013-02-08 15:32:00,
2013-02-08 07:41:00,30.0,25.0,28.17,WSW,242,0.0,4.0,83,0.00,,,0.00,,2013-02-08 15:41:00,
2013-02-08 07:51:00,30.0,25.0,28.18,West,262,0.0,2.0,82,0.00,,,0.00,,2013-02-08 15:51:00,
2013-02-08 08:01:00,29.0,25.0,28.18,West,263,0.0,1.0,85,0.00,,,0.00,,2013-02-08 16:01:00,
2013-02-08 08:11:00,29.0,25.0,28.18,West,263,0.0,1.0,85,0.00,,,0.00,,2013-02-08 16:11:00,
2013-02-08 08:21:00,30.0,26.0,28.19,WSW,240,1.0,6.0,84,0.00,,,0.00,,2013-02-08 16:21:00,
2013-02-08 08:32:00,32.0,26.0,28.19,North,354,0.0,2.0,79,0.00,,,0.00,,2013-02-08 16:32:00,
2013-02-08 08:41:00,32.0,26.0,28.19,North,354,0.0,2.0,79,0.00,,,0.00,,2013-02-08 16:41:00,
2013-02-08 08:51:00,32.0,27.0,28.19,SE,131,0.0,2.0,81,0.00,,,0.00,,2013-02-08 16:51:00,
2013-02-08 09:03:00,33.0,26.0,28.19,North,355,1.0,8.0,76,0.00,,,0.00,,2013-02-08 17:03:00,
2013-02-08 09:11:00,33.0,26.0,28.19,North,355,1.0,8.0,76,0.00,,,0.00,,2013-02-08 17:11:00,
2013-02-08 09:22:00,34.0,26.0,28.19,NW,312,0.0,11.0,73,0.00,,,0.00,,2013-02-08 17:22:00,
2013-02-08 09:32:00,34.0,26.0,28.19,NE,55,2.0,7.0,72,0.00,,,0.00,,2013-02-08 17:32:00,
2013-02-08 09:42:00,34.0,26.0,28.19,NE,55,2.0,7.0,72,0.00,,,0.00,,2013-02-08 17:42:00,
2013-02-08 09:52:00,35.0,27.0,28.19,North,6,0.0,4.0,71,0.00,,,0.00,,2013-02-08 17:52:00,
2013-02-08 10:01:00,36.0,27.0,28.19,SW,233,0.0,6.0,70,0.00,,,0.00,,2013-02-08 18:01:00,
2013-02-08 10:11:00,36.0,27.0,28.19,SW,233,0.0,6.0,70,0.00,,,0.00,,2013-02-08 18:11:00,
2013-02-08 10:23:00,37.0,28.0,28.19,West,270,0.0,2.0,70,0.00,,,0.00,,2013-02-08 18:23:00,
2013-02-08 10:33:00,37.0,27.0,28.19,WSW,255,0.0,1.0,68,0.00,,,0.00,,2013-02-08 18:33:00,
2013-02-08 10:42:00,37.0,27.0,28.19,WSW,255,0.0,1.0,68,0.00,,,0.00,,2013-02-08 18:42:00,
2013-02-08 10:52:00,38.0,28.0,28.19,East,99,1.0,4.0,67,0.00,,,0.00,,2013-02-08 18:52:00,
2013-02-08 11:01:00,38.0,27.0,28.19,ESE,103,0.0,2.0,65,0.00,,,0.00,,2013-02-08 19:01:00,
2013-02-08 11:11:00,38.0,27.0,28.19,ESE,103,0.0,2.0,65,0.00,,,0.00,,2013-02-08 19:11:00,
2013-02-08 11:21:00,40.0,28.0,28.19,WNW,290,3.0,6.0,63,0.00,,,0.00,,2013-02-08 19:21:00,
2013-02-08 11:32:00,41.0,28.0,28.18,NW,307,3.0,7.0,59,0.00,,,0.00,,2013-02-08 19:32:00,
2013-02-08 11:41:00,41.0,28.0,28.18,NW,307,3.0,7.0,59,0.00,,,0.00,,2013-02-08 19:41:00,
2013-02-08 11:52:00,42.0,28.0,28.17,NNW,344,2.0,6.0,57,0.00,,,0.00,,2013-02-08 19:52:00,
2013-02-08 12:01:00,43.0,27.0,28.16,NW,312,4.0,8.0,52,0.00,,,0.00,,2013-02-08 20:01:00,
2013-02-08 12:11:00,43.0,27.0,28.16,NW,312,4.0,8.0,52,0.00,,,0.00,,2013-02-08 20:11:00,
2013-02-08 12:21:00,44.0,26.0,28.15,WNW,298,5.0,10.0,49,0.00,,,0.00,,2013-02-08 20:21:00,
2013-02-08 12:31:00,45.0,27.0,28.15,NW,312,6.0,17.0,48,0.00,,,0.00,,2013-02-08 20:31:00,
2013-02-08 12:41:00,45.0,27.0,28.15,NW,312,6.0,17.0,48,0.00,,,0.00,,2013-02-08 20:41:00,
2013-02-08 12:52:00,46.0,27.0,28.14,WNW,293,7.0,12.0,47,0.00,,,0.00,,2013-02-08 20:52:00,
2013-02-08 13:01:00,46.0,26.0,28.14,WNW,297,7.0,14.0,46,0.00,,,0.00,,2013-02-08 21:01:00,
2013-02-08 13:11:00,46.0,26.0,28.14,WNW,297,7.0,14.0,46,0.00,,,0.00,,2013-02-08 21:11:00,
2013-02-08 13:21:00,46.0,25.0,28.13,NNW,332,8.0,15.0,43,0.00,,,0.00,,2013-02-08 21:21:00,
2013-02-08 13:32:00,47.0,26.0,28.12,NW,315,6.0,11.0,43,0.00,,,0.00,,2013-02-08 21:32:00,
2013-02-08 13:41:00,47.0,26.0,28.12,NW,315,6.0,11.0,43,0.00,,,0.00,,2013-02-08 21:41:00,
2013-02-08 13:52:00,48.0,25.0,28.12,West,262,6.0,14.0,41,0.00,,,0.00,,2013-02-08 21:52:00,
2013-02-08 14:01:00,48.0,27.0,28.12,NW,323,7.0,14.0,43,0.00,,,0.00,,2013-02-08 22:01:00,
2013-02-08 14:11:00,48.0,27.0,28.12,NW,323,7.0,14.0,43,0.00,,,0.00,,2013-02-08 22:11:00,
2013-02-08 14:21:00,48.0,27.0,28.12,WNW,286,5.0,11.0,43,0.00,,,0.00,,2013-02-08 22:21:00,
2013-02-08 14:31:00,48.0,25.0,28.11,West,274,9.0,13.0,41,0.00,,,0.00,,2013-02-08 22:31:00,
2013-02-08 14:41:00,48.0,25.0,28.11,West,274,9.0,13.0,41,0.00,,,0.00,,2013-02-08 22:41:00,
2013-02-08 14:51:00,49.0,26.0,28.11,WNW,292,7.0,13.0,40,0.00,,,0.00,,2013-02-08 22:51:00,
2013-02-08 15:01:00,49.0,25.0,28.10,SW,232,3.0,9.0,38,0.00,,,0.00,,2013-02-08 23:01:00,
2013-02-08 15:11:00,49.0,25.0,28.10,SW,232,3.0,9.0,38,0.00,,,0.00,,2013-02-08 23:11:00,
2013-02-08 15:21:00,49.0,23.0,28.10,WNW,290,3.0,7.0,36,0.00,,,0.00,,2013-02-08 23:21:00,
2013-02-08 15:31:00,49.0,23.0,28.10,WNW,283,3.0,7.0,35,0.00,,,0.00,,2013-02-08 23:31:00,
2013-02-08 15:41:00,49.0,23.0,28.10,WNW,283,3.0,7.0,35,0.00,,,0.00,,2013-02-08 23:41:00,
2013-02-08 15:52:00,50.0,24.0,28.10,WNW,287,2.0,5.0,36,0.00,,,0.00,,2013-02-08 23:52:00,
2013-02-08 16:01:00,50.0,25.0,28.10,WNW,297,3.0,6.0,37,0.00,,,0.00,,2013-02-09 00:01:00,
2013-02-08 16:11:00,50.0,25.0,28.10,WNW,297,3.0,6.0,37,0.00,,,0.00,,2013-02-09 00:11:00,
2013-02-08 16:21:00,49.0,24.0,28.10,WNW,286,3.0,6.0,37,0.00,,,0.00,,2013-02-09 00:21:00,
2013-02-08 16:31:00,47.0,25.0,28.10,West,273,4.0,7.0,41,0.00,,,0.00,,2013-02-09 00:31:00,
2013-02-08 16:41:00,47.0,25.0,28.10,West,273,4.0,7.0,41,0.00,,,0.00,,2013-02-09 00:41:00,
2013-02-08 16:52:00,47.0,25.0,28.09,NW,305,7.0,11.0,42,0.00,,,0.00,,2013-02-09 00:52:00,
2013-02-08 17:01:00,47.0,26.0,28.09,WNW,285,9.0,15.0,44,0.00,,,0.00,,2013-02-09 01:01:00,
2013-02-08 17:11:00,47.0,26.0,28.09,WNW,285,9.0,15.0,44,0.00,,,0.00,,2013-02-09 01:11:00,
2013-02-08 17:21:00,47.0,27.0,28.10,NW,326,9.0,15.0,45,0.00,,,0.00,,2013-02-09 01:21:00,
2013-02-08 17:31:00,46.0,26.0,28.10,NW,316,10.0,15.0,46,0.00,,,0.00,,2013-02-09 01:31:00,
2013-02-08 17:41:00,46.0,26.0,28.10,NW,316,10.0,15.0,46,0.00,,,0.00,,2013-02-09 01:41:00,
2013-02-08 17:52:00,45.0,27.0,28.11,West,266,6.0,13.0,48,0.00,,,0.00,,2013-02-09 01:52:00,
2013-02-08 18:01:00,45.0,27.0,28.11,West,281,8.0,13.0,48,0.00,,,0.00,,2013-02-09 02:01:00,
2013-02-08 18:11:00,45.0,27.0,28.11,West,281,8.0,13.0,48,0.00,,,0.00,,2013-02-09 02:11:00,
2013-02-08 18:21:00,44.0,27.0,28.12,West,268,7.0,13.0,50,0.00,,,0.00,,2013-02-09 02:21:00,
2013-02-08 18:32:00,44.0,27.0,28.11,WNW,289,11.0,18.0,50,0.00,,,0.00,,2013-02-09 02:32:00,
2013-02-08 18:41:00,44.0,27.0,28.11,WNW,289,11.0,18.0,50,0.00,,,0.00,,2013-02-09 02:41:00,
2013-02-08 18:52:00,44.0,27.0,28.11,NNW,330,15.0,25.0,51,0.00,,,0.00,,2013-02-09 02:52:00,
2013-02-08 19:01:00,44.0,27.0,28.11,NNW,330,15.0,25.0,51,0.00,,,0.00,,2013-02-09 03:01:00,
2013-02-08 19:11:00,44.0,27.0,28.11,NNW,330,15.0,25.0,51,0.00,,,0.00,,2013-02-09 03:11:00,
2013-02-08 19:21:00,44.0,27.0,28.12,NW,305,12.0,22.0,50,0.00,,,0.00,,2013-02-09 03:21:00,
2013-02-08 19:31:00,44.0,27.0,28.12,NW,308,9.0,17.0,51,0.00,,,0.00,,2013-02-09 03:31:00,
2013-02-08 19:41:00,44.0,27.0,28.12,NW,308,9.0,17.0,51,0.00,,,0.00,,2013-02-09 03:41:00,
2013-02-08 19:51:00,43.0,26.0,28.13,WSW,250,6.0,18.0,51,0.00,,,0.00,,2013-02-09 03:51:00,
2013-02-08 20:02:00,44.0,27.0,28.13,WNW,285,11.0,19.0,50,0.00,,,0.00,,2013-02-09 04:02:00,
2013-02-08 20:11:00,44.0,27.0,28.13,WNW,285,11.0,19.0,50,0.00,,,0.00,,2013-02-09 04:11:00,
2013-02-08 20:22:00,43.0,26.0,28.12,West,281,11.0,17.0,51,0.00,,,0.00,,2013-02-09 04:22:00,
2013-02-08 20:31:00,43.0,26.0,28.12,NW,308,9.0,22.0,51,0.00,,,0.00,,2013-02-09 04:31:00,
2013-02-08 20:42:00,43.0,26.0,28.12,NW,308,9.0,22.0,51,0.00,,,0.00,,2013-02-09 04:42:00,
2013-02-08 20:52:00,43.0,26.0,28.13,NW,309,12.0,21.0,51,0.00,,,0.00,,2013-02-09 04:52:00,
2013-02-08 21:02:00,43.0,27.0,28.13,WNW,295,7.0,16.0,52,0.00,,,0.00,,2013-02-09 05:02:00,
2013-02-08 21:11:00,43.0,27.0,28.13,WNW,295,7.0,16.0,52,0.00,,,0.00,,2013-02-09 05:11:00,
2013-02-08 21:22:00,42.0,26.0,28.14,NW,312,4.0,12.0,53,0.00,,,0.00,,2013-02-09 05:22:00,
2013-02-08 21:31:00,42.0,27.0,28.14,NNW,344,3.0,9.0,55,0.00,,,0.00,,2013-02-09 05:31:00,
2013-02-08 21:41:00,42.0,27.0,28.14,NNW,344,3.0,9.0,55,0.00,,,0.00,,2013-02-09 05:41:00,
2013-02-08 21:52:00,42.0,26.0,28.13,WNW,286,7.0,15.0,53,0.00,,,0.00,,2013-02-09 05:52:00,
2013-02-08 22:01:00,43.0,27.0,28.13,West,273,13.0,25.0,52,0.00,,,0.00,,2013-02-09 06:01:00,
2013-02-08 22:11:00,43.0,27.0,28.13,West,273,13.0,25.0,52,0.00,,,0.00,,2013-02-09 06:11:00,
2013-02-08 22:21:00,43.0,26.0,28.14,NNW,338,9.0,20.0,51,0.00,,,0.00,,2013-02-09 06:21:00,
2013-02-08 22:31:00,42.0,26.0,28.13,WNW,293,9.0,20.0,53,0.00,,,0.00,,2013-02-09 06:31:00,
2013-02-08 22:41:00,42.0,26.0,28.13,WNW,293,9.0,20.0,53,0.00,,,0.00,,2013-02-09 06:41:00,
2013-02-08 22:52:00,42.0,27.0,28.14,WNW,283,6.0,13.0,54,0.00,,,0.00,,2013-02-09 06:52:00,
2013-02-08 23:01:00,42.0,27.0,28.14,WNW,283,6.0,13.0,54,0.00,,,0.00,,2013-02-09 07:01:00,
2013-02-08 23:11:00,42.0,27.0,28.14,WNW,283,6.0,13.0,54,0.00,,,0.00,,2013-02-09 07:11:00,
2013-02-08 23:21:00,40.0,26.0,28.14,WNW,299,3.0,10.0,58,0.00,,,0.00,,2013-02-09 07:21:00,
2013-02-08 23:31:00,40.0,26.0,28.14,NNW,330,3.0,10.0,58,0.00,,,0.00,,2013-02-09 07:31:00,
2013-02-08 23:42:00,40.0,26.0,28.14,NNW,330,3.0,10.0,58,0.00,,,0.00,,2013-02-09 07:42:00,
2013-02-08 23:51:00,41.0,27.0,28.13,WNW,292,6.0,17.0,56,0.00,,,0.00,,2013-02-09 07:51:00,